Location: Newark
(53.3039°N, 0.9124°W)
Time: 17:58:45
(UTC+00:00)

ISS - Visible Passes

Search period start: 15 July 2019 00:00
Search period end: 25 July 2019 00:00
Orbit: 409 x 419 km, 51.6° (Epoch: 16 July)

Date Brightness Start Highest point End Pass type
(mag) Time Alt. Az. Time Alt. Az. Time Alt. Az.
15 Jul -3.7 00:20:38 17° WSW 00:23:01 54° SSE 00:26:17 10° E visible
15 Jul -3.8 01:56:15 10° W 01:59:33 62° S 02:02:50 10° ESE visible
15 Jul -2.0 21:58:12 14° SE 21:58:12 14° SE 21:59:39 10° ESE visible
15 Jul -3.5 23:30:42 11° SW 23:33:48 44° SSE 23:37:00 10° E visible
16 Jul -3.9 01:06:59 10° W 01:10:18 66° S 01:13:36 10° E visible
16 Jul -3.3 02:43:39 10° W 02:46:46 37° SSW 02:49:52 10° SE visible
16 Jul -3.2 22:41:32 10° SW 22:44:37 34° SSE 22:47:41 10° E visible
17 Jul -3.9 00:17:44 10° WSW 00:21:03 66° S 00:24:21 10° E visible
17 Jul -3.6 01:54:21 10° W 01:57:34 47° SSW 02:00:47 10° ESE visible
17 Jul -2.8 21:52:36 10° SSW 21:55:26 26° SSE 21:58:17 10° E visible
17 Jul -3.8 23:28:29 10° WSW 23:31:47 60° S 23:35:05 10° E visible
18 Jul -3.8 01:05:03 10° W 01:08:20 57° S 01:11:36 10° ESE visible
18 Jul -2.6 02:41:55 10° W 02:44:37 23° SSW 02:47:18 10° SSE visible
18 Jul -2.3 21:03:52 10° SSW 21:06:19 19° SSE 21:08:46 10° E visible
18 Jul -3.7 22:39:16 10° WSW 22:42:32 51° SSE 22:45:47 10° E visible
19 Jul -3.9 00:15:45 10° W 00:19:04 64° S 00:22:22 10° ESE visible
19 Jul -3.0 01:52:28 10° W 01:55:28 31° SSW 01:58:26 10° SE visible
19 Jul -3.4 21:50:06 10° SW 21:53:17 41° SSE 21:56:27 10° E visible
19 Jul -3.9 23:26:26 10° W 23:29:46 67° S 23:33:05 10° E visible
20 Jul -3.4 01:03:05 10° W 01:06:15 40° SSW 01:09:04 12° SE visible
20 Jul -1.6 02:40:45 10° WSW 02:45:51 - SSE 02:41:09 11° WSW visible
20 Jul -3.0 21:01:02 10° SW 21:04:03 32° SSE 21:07:05 10° E visible
20 Jul -3.9 22:37:09 10° WSW 22:40:28 65° S 22:43:46 10° E visible
21 Jul -3.7 00:13:45 10° W 00:17:00 50° SSW 00:17:58 36° SE visible
21 Jul -3.8 21:47:52 10° WSW 21:51:10 58° S 21:54:27 10° E visible
21 Jul -3.8 23:24:24 10° W 23:27:43 59° S 23:29:19 26° ESE visible
22 Jul -1.7 01:01:14 10° W 01:02:06 15° WSW 01:02:06 15° WSW visible
22 Jul -3.5 20:58:37 10° WSW 21:01:52 49° SSE 21:05:07 10° E visible
22 Jul -3.9 22:35:04 10° W 22:38:23 65° S 22:41:05 15° ESE visible
23 Jul -2.6 00:11:45 10° W 00:13:52 27° WSW 00:13:52 27° WSW visible
23 Jul -3.8 21:45:43 10° W 21:49:03 67° S 21:52:22 10° E visible
23 Jul -3.5 23:22:21 10° W 23:25:33 43° SSW 23:25:47 42° S visible
24 Jul -3.7 20:56:23 10° WSW 20:59:43 63° S 21:03:01 10° E visible
24 Jul -3.7 22:32:57 10° W 22:36:15 53° SSW 22:37:47 27° SE visible
